Wind From: 13-12-2017 10:08 Until: 14-12-2017 06:00 warning for: Wind Level: Yellow info button

Although rather usual in this region, locally or potentially dangerous phenomena are expected. (such as local winds, summer thunderstorms, rising streams or high waves) Be aware and pay attention to the latest weather updates, especially if you carry out activities exposed to weather or close to a stream or shoreline. 


Meteo18 Weather Cam more information Meteo18 Weather Cam


Thunder radar more information blitzortung!


Rain radar more information rain snow radar


Visit our other weather sites:

Template documentation
and downloads

And another site



Weather Underground History page Text

Daily Summary for August 29, 2016 Units:  Metric    English   Both
« Previous Day
Next Day »
Daily Weekly Monthly Yearly Custom
  High: Low: Average:
Temperature: 22.1 °C 15.0 °C 18.7 °C
Dew Point: 14.7 °C 11.7 °C 13.5 °C
Humidity: 85 % 59 % 72 %
Wind Speed: 17.7 km/h 0.0 km/h 4 km/h
Wind Gust: 19.3 km/h - -
Wind:- - WSW
Pressure: 1022.6 hPa 1019.2 hPa -
Precipitation: 0.0 mm    
Historical Graphs
 
 
Tabular Data for August 29, 2016
Time Temperature Dew Point Pressure Wind Wind Speed Wind Gust Humidity Rainfall Rate (Hourly)
00:02 21.0 °C 13.2 °C 1019.2 hPa WSW 1.6 km/h 14.5 km/h 61 % 0.0 mm
00:12 20.7 °C 13.2 °C 1019.5 hPa WNW 6.4 km/h 11.3 km/h 62 % 0.0 mm
00:17 20.6 °C 13.3 °C 1019.5 hPa SW 1.6 km/h 9.7 km/h 63 % 0.0 mm
00:22 20.5 °C 13.2 °C 1019.5 hPa SW 4.8 km/h 9.7 km/h 63 % 0.0 mm
00:32 20.3 °C 13.0 °C 1019.5 hPa West 3.2 km/h 9.7 km/h 63 % 0.0 mm
00:42 20.2 °C 12.9 °C 1019.9 hPa West 3.2 km/h 12.9 km/h 63 % 0.0 mm
00:47 20.2 °C 12.9 °C 1019.9 hPa WNW 6.4 km/h 14.5 km/h 63 % 0.0 mm
00:52 20.2 °C 12.9 °C 1019.9 hPa SW 1.6 km/h 14.5 km/h 63 % 0.0 mm
00:57 20.0 °C 12.7 °C 1019.9 hPa Calm   14.5 km/h 63 % 0.0 mm
01:02 19.9 °C 12.9 °C 1019.9 hPa WSW 1.6 km/h 11.3 km/h 64 % 0.0 mm
01:12 19.6 °C 13.1 °C 1019.9 hPa NW 1.6 km/h 11.3 km/h 66 % 0.0 mm
01:17 19.4 °C 12.9 °C 1019.9 hPa West 6.4 km/h 6.4 km/h 66 % 0.0 mm
01:22 19.4 °C 12.9 °C 1019.9 hPa WNW 1.6 km/h 6.4 km/h 66 % 0.0 mm
01:27 19.3 °C 12.8 °C 1020.2 hPa WNW 6.4 km/h 14.5 km/h 66 % 0.0 mm
01:32 19.3 °C 12.8 °C 1020.2 hPa WNW 9.7 km/h 14.5 km/h 66 % 0.0 mm
01:37 19.2 °C 12.7 °C 1020.2 hPa WNW 3.2 km/h 14.5 km/h 66 % 0.0 mm
01:42 19.1 °C 12.8 °C 1020.2 hPa WNW 6.4 km/h 14.5 km/h 67 % 0.0 mm
01:47 18.9 °C 12.6 °C 1020.2 hPa WNW 3.2 km/h 14.5 km/h 67 % 0.0 mm
01:52 18.9 °C 12.6 °C 1020.2 hPa WNW 8.0 km/h 14.5 km/h 67 % 0.0 mm
01:57 18.8 °C 12.5 °C 1020.2 hPa WNW 9.7 km/h 12.9 km/h 67 % 0.0 mm
02:02 18.7 °C 12.4 °C 1020.2 hPa NW 3.2 km/h 14.5 km/h 67 % 0.0 mm
02:12 18.5 °C 12.5 °C 1020.2 hPa WNW 1.6 km/h 14.5 km/h 68 % 0.0 mm
02:17 18.4 °C 12.4 °C 1020.2 hPa West 1.6 km/h 14.5 km/h 68 % 0.0 mm
02:22 18.3 °C 12.5 °C 1020.2 hPa WNW 1.6 km/h 14.5 km/h 69 % 0.0 mm
02:27 18.2 °C 12.4 °C 1020.2 hPa WSW 1.6 km/h 11.3 km/h 69 % 0.0 mm
02:32 18.1 °C 12.5 °C 1020.2 hPa Calm   11.3 km/h 70 % 0.0 mm
02:42 17.8 °C 12.5 °C 1020.2 hPa WSW 4.8 km/h 4.8 km/h 71 % 0.0 mm
02:47 17.7 °C 12.4 °C 1020.2 hPa WSW 1.6 km/h 6.4 km/h 71 % 0.0 mm
02:52 17.6 °C 12.5 °C 1020.2 hPa WSW 3.2 km/h 6.4 km/h 72 % 0.0 mm
02:57 17.4 °C 12.3 °C 1020.2 hPa West 1.6 km/h 6.4 km/h 72 % 0.0 mm
03:02 17.3 °C 12.4 °C 1020.2 hPa SW 1.6 km/h 6.4 km/h 73 % 0.0 mm
03:12 17.2 °C 12.3 °C 1020.2 hPa SW 1.6 km/h 4.8 km/h 73 % 0.0 mm
03:17 17.2 °C 12.3 °C 1020.2 hPa SSW 1.6 km/h 4.8 km/h 73 % 0.0 mm
03:22 16.9 °C 12.0 °C 1020.2 hPa SSW 3.2 km/h 4.8 km/h 73 % 0.0 mm
03:32 16.4 °C 11.8 °C 1020.2 hPa SSW 3.2 km/h 3.2 km/h 74 % 0.0 mm
03:37 16.2 °C 12.0 °C 1020.5 hPa SSW 1.6 km/h 4.8 km/h 76 % 0.0 mm
03:42 16.2 °C 12.2 °C 1020.5 hPa SSW 1.6 km/h 4.8 km/h 77 % 0.0 mm
03:52 16.4 °C 12.2 °C 1020.5 hPa SW 1.6 km/h 6.4 km/h 76 % 0.0 mm
03:57 16.3 °C 12.1 °C 1020.5 hPa SW 4.8 km/h 6.4 km/h 76 % 0.0 mm
04:02 16.2 °C 12.0 °C 1020.5 hPa SSW 3.2 km/h 6.4 km/h 76 % 0.0 mm
04:12 16.1 °C 12.1 °C 1020.5 hPa Calm   8.0 km/h 77 % 0.0 mm
04:17 15.9 °C 11.9 °C 1020.5 hPa Calm   6.4 km/h 77 % 0.0 mm
04:22 15.9 °C 12.1 °C 1020.5 hPa SW 1.6 km/h 4.8 km/h 78 % 0.0 mm
04:32 15.6 °C 11.8 °C 1020.5 hPa South 1.6 km/h 3.2 km/h 78 % 0.0 mm
04:37 15.4 °C 11.8 °C 1020.5 hPa SSW 1.6 km/h 3.2 km/h 79 % 0.0 mm
04:42 15.3 °C 11.7 °C 1020.5 hPa Calm   3.2 km/h 79 % 0.0 mm
04:47 15.2 °C 11.8 °C 1020.5 hPa SW 3.2 km/h 3.2 km/h 80 % 0.0 mm
04:52 15.3 °C 11.9 °C 1020.5 hPa SW 3.2 km/h 3.2 km/h 80 % 0.0 mm
04:57 15.4 °C 12.0 °C 1020.5 hPa WSW 4.8 km/h 4.8 km/h 80 % 0.0 mm
05:02 15.4 °C 12.0 °C 1020.5 hPa SW 3.2 km/h 6.4 km/h 80 % 0.0 mm
05:12 15.5 °C 12.1 °C 1020.5 hPa WSW 6.4 km/h 6.4 km/h 80 % 0.0 mm
05:17 15.5 °C 12.1 °C 1020.5 hPa SSW 6.4 km/h 6.4 km/h 80 % 0.0 mm
05:22 15.4 °C 12.0 °C 1020.5 hPa SW 4.8 km/h 11.3 km/h 80 % 0.0 mm
05:27 15.4 °C 12.0 °C 1020.5 hPa SW 4.8 km/h 11.3 km/h 80 % 0.0 mm
05:32 15.3 °C 11.9 °C 1020.5 hPa SW 4.8 km/h 11.3 km/h 80 % 0.0 mm
05:42 15.3 °C 12.1 °C 1020.5 hPa WSW 6.4 km/h 9.7 km/h 81 % 0.0 mm
05:52 15.4 °C 12.2 °C 1020.2 hPa SW 8.0 km/h 12.9 km/h 81 % 0.0 mm
05:57 15.3 °C 12.2 °C 1020.2 hPa SW 3.2 km/h 12.9 km/h 82 % 0.0 mm
06:12 15.3 °C 12.2 °C 1020.2 hPa SW 3.2 km/h 12.9 km/h 82 % 0.0 mm
06:17 15.3 °C 12.4 °C 1020.2 hPa SW 6.4 km/h 12.9 km/h 83 % 0.0 mm
06:22 15.2 °C 12.3 °C 1020.2 hPa WSW 6.4 km/h 12.9 km/h 83 % 0.0 mm
06:32 15.0 °C 12.3 °C 1020.2 hPa SW 6.4 km/h 12.9 km/h 84 % 0.0 mm
06:42 15.1 °C 12.4 °C 1020.5 hPa WSW 9.7 km/h 12.9 km/h 84 % 0.0 mm
06:47 15.2 °C 12.5 °C 1020.5 hPa SW 4.8 km/h 12.9 km/h 84 % 0.0 mm
06:52 15.2 °C 12.5 °C 1020.5 hPa SW 4.8 km/h 14.5 km/h 84 % 0.0 mm
07:02 15.2 °C 12.7 °C 1020.5 hPa SW 6.4 km/h 14.5 km/h 85 % 0.0 mm
07:12 15.3 °C 12.8 °C 1020.5 hPa WSW 1.6 km/h 12.9 km/h 85 % 0.0 mm
07:17 15.3 °C 12.8 °C 1020.5 hPa South 1.6 km/h 11.3 km/h 85 % 0.0 mm
07:22 15.3 °C 12.8 °C 1020.5 hPa WSW 3.2 km/h 11.3 km/h 85 % 0.0 mm
07:32 15.4 °C 12.9 °C 1020.9 hPa WSW 4.8 km/h 9.7 km/h 85 % 0.0 mm
07:42 15.4 °C 12.7 °C 1020.9 hPa South 4.8 km/h 6.4 km/h 84 % 0.0 mm
07:52 15.4 °C 12.9 °C 1020.9 hPa SSW 3.2 km/h 9.7 km/h 85 % 0.0 mm
08:02 15.6 °C 12.9 °C 1020.9 hPa SW 4.8 km/h 9.7 km/h 84 % 0.0 mm
08:12 15.6 °C 12.9 °C 1020.9 hPa SW 8.0 km/h 9.7 km/h 84 % 0.0 mm
08:17 15.7 °C 13.0 °C 1021.2 hPa South 3.2 km/h 9.7 km/h 84 % 0.0 mm
08:22 15.7 °C 13.0 °C 1020.9 hPa South 3.2 km/h 9.7 km/h 84 % 0.0 mm
08:32 15.9 °C 13.2 °C 1021.2 hPa SW 4.8 km/h 9.7 km/h 84 % 0.0 mm
08:37 16.0 °C 13.1 °C 1021.2 hPa SW 4.8 km/h 8.0 km/h 83 % 0.0 mm
08:42 16.1 °C 13.2 °C 1021.2 hPa SW 6.4 km/h 8.0 km/h 83 % 0.0 mm
08:52 16.3 °C 13.4 °C 1021.2 hPa SSW 3.2 km/h 9.7 km/h 83 % 0.0 mm
08:57 16.4 °C 13.5 °C 1021.2 hPa Calm   9.7 km/h 83 % 0.0 mm
09:02 16.5 °C 13.6 °C 1021.2 hPa SW 4.8 km/h 9.7 km/h 83 % 0.0 mm
09:12 16.7 °C 13.8 °C 1021.2 hPa SW 1.6 km/h 8.0 km/h 83 % 0.0 mm
09:22 16.8 °C 13.9 °C 1021.2 hPa SSW 4.8 km/h 11.3 km/h 83 % 0.0 mm
09:32 17.0 °C 13.9 °C 1021.2 hPa SW 6.4 km/h 12.9 km/h 82 % 0.0 mm
09:42 17.2 °C 13.9 °C 1021.6 hPa WSW 8.0 km/h 9.7 km/h 81 % 0.0 mm
09:52 17.4 °C 13.9 °C 1021.6 hPa SSW 6.4 km/h 12.9 km/h 80 % 0.0 mm
09:57 17.7 °C 14.2 °C 1021.6 hPa WSW 3.2 km/h 11.3 km/h 80 % 0.0 mm
10:02 18.2 °C 14.5 °C 1021.6 hPa WSW 1.6 km/h 11.3 km/h 79 % 0.0 mm
10:12 18.2 °C 14.1 °C 1021.6 hPa SW 3.2 km/h 11.3 km/h 77 % 0.0 mm
10:17 18.3 °C 14.2 °C 1021.6 hPa WSW 9.7 km/h 14.5 km/h 77 % 0.0 mm
10:22 18.3 °C 14.4 °C 1021.6 hPa SSW 3.2 km/h 14.5 km/h 78 % 0.0 mm
10:32 18.5 °C 14.4 °C 1021.6 hPa WSW 4.8 km/h 16.1 km/h 77 % 0.0 mm
10:42 18.4 °C 14.3 °C 1021.6 hPa SSW 8.0 km/h 12.9 km/h 77 % 0.0 mm
10:52 18.6 °C 14.5 °C 1021.6 hPa WSW 4.8 km/h 12.9 km/h 77 % 0.0 mm
10:57 18.6 °C 14.7 °C 1021.6 hPa SSW 3.2 km/h 12.9 km/h 78 % 0.0 mm
11:02 18.5 °C 14.6 °C 1021.6 hPa West 3.2 km/h 12.9 km/h 78 % 0.0 mm
11:12 18.4 °C 14.5 °C 1021.6 hPa West 4.8 km/h 11.3 km/h 78 % 0.0 mm
11:17 18.5 °C 14.6 °C 1021.6 hPa WNW 8.0 km/h 9.7 km/h 78 % 0.0 mm
11:22 18.6 °C 14.5 °C 1021.6 hPa WNW 4.8 km/h 9.7 km/h 77 % 0.0 mm
11:32 18.8 °C 14.5 °C 1021.6 hPa SW 12.9 km/h 12.9 km/h 76 % 0.0 mm
11:37 18.9 °C 14.6 °C 1021.6 hPa WSW 6.4 km/h 12.9 km/h 76 % 0.0 mm
11:42 19.2 °C 14.7 °C 1021.6 hPa WNW 8.0 km/h 12.9 km/h 75 % 0.0 mm
11:47 19.3 °C 14.5 °C 1021.6 hPa WNW 8.0 km/h 14.5 km/h 74 % 0.0 mm
11:52 19.3 °C 14.3 °C 1021.6 hPa WNW 4.8 km/h 14.5 km/h 73 % 0.0 mm
11:57 19.4 °C 14.4 °C 1021.6 hPa WNW 6.4 km/h 14.5 km/h 73 % 0.0 mm
12:02 19.6 °C 14.4 °C 1021.6 hPa SSW 4.8 km/h 14.5 km/h 72 % 0.0 mm
12:07 19.8 °C 14.4 °C 1021.6 hPa NW 9.7 km/h 14.5 km/h 71 % 0.0 mm
12:12 19.8 °C 14.2 °C 1021.6 hPa West 3.2 km/h 14.5 km/h 70 % 0.0 mm
12:17 19.9 °C 14.0 °C 1021.6 hPa WSW 8.0 km/h 14.5 km/h 69 % 0.0 mm
12:22 20.1 °C 14.0 °C 1021.6 hPa SW 3.2 km/h 14.5 km/h 68 % 0.0 mm
12:32 20.2 °C 14.1 °C 1021.6 hPa SW 4.8 km/h 12.9 km/h 68 % 0.0 mm
12:42 20.2 °C 14.3 °C 1021.6 hPa West 9.7 km/h 14.5 km/h 69 % 0.0 mm
12:52 20.2 °C 14.1 °C 1021.6 hPa SW 8.0 km/h 14.5 km/h 68 % 0.0 mm
13:02 20.2 °C 14.1 °C 1021.6 hPa West 4.8 km/h 16.1 km/h 68 % 0.0 mm
13:12 20.3 °C 14.2 °C 1021.6 hPa SW 11.3 km/h 14.5 km/h 68 % 0.0 mm
13:17 20.2 °C 13.9 °C 1021.6 hPa WSW 6.4 km/h 16.1 km/h 67 % 0.0 mm
13:22 20.4 °C 13.8 °C 1021.6 hPa South 4.8 km/h 16.1 km/h 66 % 0.0 mm
13:32 21.1 °C 14.0 °C 1021.6 hPa SW 6.4 km/h 16.1 km/h 64 % 0.0 mm
13:42 21.2 °C 13.6 °C 1021.6 hPa West 6.4 km/h 14.5 km/h 62 % 0.0 mm
13:47 21.0 °C 13.7 °C 1021.6 hPa WSW 6.4 km/h 14.5 km/h 63 % 0.0 mm
13:52 20.9 °C 13.8 °C 1021.6 hPa SW 1.6 km/h 16.1 km/h 64 % 0.0 mm
13:57 20.9 °C 13.8 °C 1021.6 hPa WSW 6.4 km/h 16.1 km/h 64 % 0.0 mm
14:02 21.1 °C 14.0 °C 1021.6 hPa West 3.2 km/h 16.1 km/h 64 % 0.0 mm
14:12 20.9 °C 13.8 °C 1021.6 hPa West 9.7 km/h 12.9 km/h 64 % 0.0 mm
14:17 20.9 °C 14.1 °C 1021.6 hPa WNW 1.6 km/h 11.3 km/h 65 % 0.0 mm
14:22 20.9 °C 14.1 °C 1021.6 hPa SW 4.8 km/h 16.1 km/h 65 % 0.0 mm
14:27 20.9 °C 13.8 °C 1021.6 hPa WNW 4.8 km/h 16.1 km/h 64 % 0.0 mm
14:32 20.9 °C 14.1 °C 1021.6 hPa NW 6.4 km/h 16.1 km/h 65 % 0.0 mm
14:37 20.9 °C 14.1 °C 1021.6 hPa West 8.0 km/h 16.1 km/h 65 % 0.0 mm
14:42 20.9 °C 14.3 °C 1021.6 hPa North 12.9 km/h 16.1 km/h 66 % 0.0 mm
14:47 20.9 °C 14.5 °C 1021.6 hPa West 11.3 km/h 19.3 km/h 67 % 0.0 mm
14:52 20.6 °C 14.5 °C 1021.6 hPa NW 17.7 km/h 19.3 km/h 68 % 0.0 mm
15:02 20.3 °C 14.4 °C 1021.6 hPa West 9.7 km/h 19.3 km/h 69 % 0.0 mm
15:12 20.3 °C 14.4 °C 1021.6 hPa NNW 6.4 km/h 19.3 km/h 69 % 0.0 mm
15:17 20.3 °C 14.4 °C 1021.6 hPa West 3.2 km/h 19.3 km/h 69 % 0.0 mm
15:22 20.4 °C 14.3 °C 1021.6 hPa WNW 12.9 km/h 17.7 km/h 68 % 0.0 mm
15:32 20.8 °C 14.2 °C 1021.6 hPa West 4.8 km/h 19.3 km/h 66 % 0.0 mm
15:37 20.9 °C 14.3 °C 1021.6 hPa West 1.6 km/h 19.3 km/h 66 % 0.0 mm
15:42 20.9 °C 14.1 °C 1021.6 hPa WNW 3.2 km/h 19.3 km/h 65 % 0.0 mm
15:52 21.3 °C 14.0 °C 1021.6 hPa NNW 9.7 km/h 12.9 km/h 63 % 0.0 mm
16:02 21.4 °C 14.1 °C 1021.6 hPa West 1.6 km/h 12.9 km/h 63 % 0.0 mm
16:17 21.5 °C 13.7 °C 1021.6 hPa WSW 3.2 km/h 14.5 km/h 61 % 0.0 mm
16:22 21.6 °C 13.5 °C 1021.6 hPa NW 6.4 km/h 14.5 km/h 60 % 0.0 mm
16:27 21.7 °C 13.6 °C 1021.6 hPa West 1.6 km/h 14.5 km/h 60 % 0.0 mm
16:32 21.8 °C 13.9 °C 1021.6 hPa West 4.8 km/h 12.9 km/h 61 % 0.0 mm
16:37 21.8 °C 13.7 °C 1021.6 hPa WNW 4.8 km/h 12.9 km/h 60 % 0.0 mm
16:42 21.8 °C 13.9 °C 1021.2 hPa WNW 3.2 km/h 11.3 km/h 61 % 0.0 mm
16:52 21.7 °C 14.1 °C 1021.6 hPa WNW 3.2 km/h 11.3 km/h 62 % 0.0 mm
16:57 21.8 °C 14.2 °C 1021.2 hPa SW 8.0 km/h 11.3 km/h 62 % 0.0 mm
17:02 21.8 °C 14.2 °C 1021.6 hPa West 6.4 km/h 11.3 km/h 62 % 0.0 mm
17:12 21.9 °C 13.5 °C 1021.2 hPa WNW 6.4 km/h 9.7 km/h 59 % 0.0 mm
17:17 22.0 °C 13.9 °C 1021.2 hPa WSW 4.8 km/h 11.3 km/h 60 % 0.0 mm
17:22 22.1 °C 14.2 °C 1021.2 hPa SW 3.2 km/h 11.3 km/h 61 % 0.0 mm
17:27 22.1 °C 14.2 °C 1021.2 hPa South 1.6 km/h 11.3 km/h 61 % 0.0 mm
17:32 22.1 °C 14.2 °C 1021.2 hPa SW 4.8 km/h 9.7 km/h 61 % 0.0 mm
17:42 22.1 °C 14.2 °C 1021.2 hPa SW 1.6 km/h 9.7 km/h 61 % 0.0 mm
17:52 22.0 °C 13.9 °C 1021.2 hPa West 3.2 km/h 8.0 km/h 60 % 0.0 mm
18:02 21.8 °C 13.9 °C 1021.2 hPa SW 1.6 km/h 8.0 km/h 61 % 0.0 mm
18:12 21.7 °C 14.3 °C 1021.2 hPa Calm   6.4 km/h 63 % 0.0 mm
18:17 21.6 °C 14.3 °C 1021.2 hPa NNW 1.6 km/h 6.4 km/h 63 % 0.0 mm
18:22 21.5 °C 14.2 °C 1021.2 hPa NW 6.4 km/h 6.4 km/h 63 % 0.0 mm
18:32 21.4 °C 14.1 °C 1021.2 hPa West 1.6 km/h 6.4 km/h 63 % 0.0 mm
18:42 21.4 °C 14.3 °C 1021.2 hPa WNW 16.1 km/h 16.1 km/h 64 % 0.0 mm
18:52 21.3 °C 14.2 °C 1021.2 hPa NW 3.2 km/h 17.7 km/h 64 % 0.0 mm
18:57 21.3 °C 14.2 °C 1021.2 hPa NNW 6.4 km/h 16.1 km/h 64 % 0.0 mm
19:02 21.4 °C 14.1 °C 1021.2 hPa North 3.2 km/h 16.1 km/h 63 % 0.0 mm
19:12 21.4 °C 14.1 °C 1021.2 hPa WNW 6.4 km/h 11.3 km/h 63 % 0.0 mm
19:17 21.4 °C 14.1 °C 1021.2 hPa NW 4.8 km/h 12.9 km/h 63 % 0.0 mm
19:22 21.4 °C 14.3 °C 1021.2 hPa North 4.8 km/h 14.5 km/h 64 % 0.0 mm
19:27 21.4 °C 14.3 °C 1021.2 hPa NW 3.2 km/h 14.5 km/h 64 % 0.0 mm
19:32 21.3 °C 14.2 °C 1021.2 hPa WNW 3.2 km/h 14.5 km/h 64 % 0.0 mm
19:42 21.2 °C 14.1 °C 1021.2 hPa NW 4.8 km/h 11.3 km/h 64 % 0.0 mm
19:47 21.2 °C 14.4 °C 1021.6 hPa WSW 3.2 km/h 11.3 km/h 65 % 0.0 mm
19:52 21.1 °C 14.3 °C 1021.6 hPa NW 3.2 km/h 11.3 km/h 65 % 0.0 mm
19:57 21.1 °C 14.3 °C 1021.6 hPa NW 3.2 km/h 11.3 km/h 65 % 0.0 mm
20:12 21.3 °C 14.2 °C 1021.6 hPa WNW 1.6 km/h 14.5 km/h 64 % 0.0 mm
20:17 21.2 °C 14.4 °C 1021.6 hPa WNW 1.6 km/h 14.5 km/h 65 % 0.0 mm
20:22 21.1 °C 14.5 °C 1021.6 hPa WNW 1.6 km/h 8.0 km/h 66 % 0.0 mm
20:32 20.8 °C 14.4 °C 1021.6 hPa NW 1.6 km/h 8.0 km/h 67 % 0.0 mm
20:42 20.4 °C 14.1 °C 1021.9 hPa NW 3.2 km/h 8.0 km/h 67 % 0.0 mm
20:52 20.1 °C 14.2 °C 1021.9 hPa Calm   6.4 km/h 69 % 0.0 mm
20:57 19.9 °C 14.3 °C 1021.9 hPa Calm   3.2 km/h 70 % 0.0 mm
21:02 19.7 °C 14.1 °C 1021.9 hPa Calm   3.2 km/h 70 % 0.0 mm
21:12 19.1 °C 13.9 °C 1021.9 hPa Calm   1.6 km/h 72 % 0.0 mm
21:22 18.7 °C 13.8 °C 1021.9 hPa Calm     73 % 0.0 mm
21:32 18.3 °C 13.8 °C 1022.2 hPa Calm     75 % 0.0 mm
21:42 18.1 °C 13.8 °C 1022.2 hPa Calm     76 % 0.0 mm
21:47 17.9 °C 13.6 °C 1022.2 hPa Calm     76 % 0.0 mm
21:52 17.7 °C 13.6 °C 1022.2 hPa Calm     77 % 0.0 mm
21:57 17.4 °C 13.7 °C 1022.2 hPa Calm     79 % 0.0 mm
22:02 17.2 °C 13.7 °C 1022.2 hPa Calm     80 % 0.0 mm
22:12 16.9 °C 13.4 °C 1022.2 hPa Calm     80 % 0.0 mm
22:17 16.8 °C 13.3 °C 1022.2 hPa Calm     80 % 0.0 mm
22:22 16.7 °C 13.6 °C 1022.6 hPa Calm     82 % 0.0 mm
22:27 16.7 °C 13.6 °C 1022.6 hPa Calm     82 % 0.0 mm
22:32 16.6 °C 13.5 °C 1022.6 hPa Calm     82 % 0.0 mm
22:42 16.4 °C 13.3 °C 1022.6 hPa Calm     82 % 0.0 mm
22:47 16.3 °C 13.4 °C 1022.6 hPa Calm     83 % 0.0 mm
22:52 16.3 °C 13.4 °C 1022.6 hPa Calm     83 % 0.0 mm
23:02 16.2 °C 13.5 °C 1022.6 hPa Calm     84 % 0.0 mm
23:12 16.3 °C 13.6 °C 1022.6 hPa Calm     84 % 0.0 mm
23:17 16.4 °C 13.7 °C 1022.6 hPa Calm     84 % 0.0 mm
23:22 16.4 °C 13.7 °C 1022.6 hPa Calm     84 % 0.0 mm
23:32 16.6 °C 13.9 °C 1022.6 hPa Calm     84 % 0.0 mm
23:37 16.7 °C 13.8 °C 1022.6 hPa Calm     83 % 0.0 mm
23:42 16.8 °C 13.9 °C 1022.6 hPa Calm     83 % 0.0 mm
23:47 17.0 °C 14.1 °C 1022.6 hPa Calm     83 % 0.0 mm
23:52 17.1 °C 14.0 °C 1022.6 hPa NW 1.6 km/h   82 % 0.0 mm
Meteo18
Compliments of Weather Underground - 4 mb

Script developed by  Jim McMurry - jmcmurry@mwt.net Adapted for the template by  Wim van der Kuil - Leuven-Template.eu

You find our weather info also at:

European Weather Network

Weather Underground

Equipment we use:

Weather-station
Davis Vue

Weather-program
Meteohub

Weather-server
Raspberry PI 2 B+

Provider
1 and 1

Davis Vue

Meteohub

Raspberry PI 2 B+

1 and 1